Weather in Stary Sambir

Ukraine / Lviv District     49°26′38″N   23°00′28″E
temp.,
°C
wind,
m/s
gust,
m/s
humid.,
%
clouds,
%
prec.,
mm/h
press.,
hPa
HPBL,
m
14 june, mon
mon1400:00+10wnw5149440 0.8 1018650
03:00+10nw51296100 1.4 1018622
06:00+9nnw61198100 0.6 1019684
09:00+9nw51095100 2.3 1020626
12:00+13nnw6871100 0.1 10201109
15:00+12nnw487184 0.1 1020734
18:00+14n4875100 0.0 1019653
21:00+14nnw3878100 0.0 1019341
15 june, tue
tue1500:00+13nw227697 0.0 102053
03:00+10w228718 0.0 102012
06:00+9w228844 0.0 102021
09:00+15nnw236924 0.0 1020388
12:00+18ne22647 0.0 1019858
15:00+20nne3263100 0.0 10181186
18:00+19n336388 0.0 10171048
21:00+15wnw1178100 0.0 101711
16 june, wed
wed1600:00+12w118698 0.0 101810
03:00+11wsw119019 0.0 101810
06:00+11wsw119060 0.0 101910
09:00+16n12757 0.0 1019356
12:00+20nne34685 0.0 10191022
15:00+22ne34594 0.0 10181452
18:00+23ne346031 0.0 10181778
21:00+17ne22880 0.3 101935
17 june, thu
thu1700:00+14ese11940 0.0 102010
03:00+14sse009521 0.0 102010
06:00+13e119684 0.0 102011
09:00+18e248523 0.0 1021415
12:00+21e457142 0.0 10211053
15:00+23e456249 0.1 10201405
18:00+22e46689 0.1 1020937
21:00+19ese358777 0.1 1020113
18 june, fri
fri1800:00+16se229358 0.0 102127
03:00+15se2295100 0.0 102035
06:00+14ese229510 0.0 102043
09:00+19ese488138 0.0 1020476
12:00+23e686954 0.0 1019991
15:00+24e67615 0.0 10191139
18:00+23e68690 0.0 10191072
21:00+19e310870 0.0 1019350